Time,TemperatureF,DewpointF,PressureIn,WindDirection,WindDirectionDegrees,WindSpeedMPH,WindSpeedGustMPH,Humidity,HourlyPrecipIn,Conditions,Clouds,dailyrainin,SoftwareType,DateUTC
2013-05-02 08:30:00,46.0,44.0,30.22,NNW,343,1.0,-999.0,94,-99.99,,,-99.99,,2013-05-02 13:30:00,
2013-05-02 08:52:00,46.0,44.0,30.22,NNW,343,1.0,-999.0,94,-99.99,,,-99.99,,2013-05-02 13:52:00,
2013-05-02 09:02:00,46.0,44.0,30.22,NNW,343,1.0,-999.0,94,-99.99,,,-99.99,,2013-05-02 14:02:00,
2013-05-02 09:11:00,46.0,44.0,30.22,NNW,343,1.0,-999.0,94,-99.99,,,-99.99,,2013-05-02 14:11:00,
2013-05-02 09:22:00,46.0,44.0,30.22,NNW,343,1.0,-999.0,94,-99.99,,,-99.99,,2013-05-02 14:22:00,
2013-05-02 09:52:00,47.0,45.0,30.23,North,5,3.0,-999.0,92,-99.99,,,-99.99,,2013-05-02 14:52:00,
2013-05-02 10:02:00,47.0,45.0,30.23,North,5,3.0,-999.0,92,-99.99,,,-99.99,,2013-05-02 15:02:00,
2013-05-02 10:12:00,47.0,45.0,30.23,North,5,3.0,-999.0,92,-99.99,,,-99.99,,2013-05-02 15:12:00,
2013-05-02 10:22:00,47.0,45.0,30.24,NNW,344,2.0,-999.0,91,-99.99,,,-99.99,,2013-05-02 15:22:00,
2013-05-02 10:30:00,48.0,45.0,30.24,NNW,336,4.0,-999.0,91,-99.99,,,-99.99,,2013-05-02 15:30:00,
2013-05-02 10:33:00,47.0,45.0,30.24,NNW,344,2.0,-999.0,91,-99.99,,,-99.99,,2013-05-02 15:33:00,
2013-05-02 10:43:00,47.0,45.0,30.24,NNW,344,2.0,-999.0,91,-99.99,,,-99.99,,2013-05-02 15:43:00,
2013-05-02 11:02:00,48.0,45.0,30.24,NNW,336,4.0,-999.0,91,-99.99,,,-99.99,,2013-05-02 16:02:00,
2013-05-02 11:13:00,48.0,45.0,30.24,NNW,336,4.0,-999.0,91,-99.99,,,-99.99,,2013-05-02 16:13:00,
2013-05-02 11:22:00,48.0,45.0,30.24,NNW,336,4.0,-999.0,91,-99.99,,,-99.99,,2013-05-02 16:22:00,
2013-05-02 12:22:00,46.0,42.0,30.27,NW,320,5.0,-999.0,87,-99.99,,,-99.99,,2013-05-02 17:22:00,
2013-05-02 12:32:00,46.0,42.0,30.27,NW,320,5.0,-999.0,87,-99.99,,,-99.99,,2013-05-02 17:32:00,
2013-05-02 12:42:00,46.0,42.0,30.27,NW,320,5.0,-999.0,87,-99.99,,,-99.99,,2013-05-02 17:42:00,
2013-05-02 12:52:00,46.0,43.0,30.28,NNW,327,5.0,-999.0,88,-99.99,,,-99.99,,2013-05-02 17:52:00,
2013-05-02 13:01:00,46.0,43.0,30.28,NNW,327,5.0,-999.0,88,-99.99,,,-99.99,,2013-05-02 18:01:00,
2013-05-02 13:11:00,46.0,43.0,30.28,NNW,327,5.0,-999.0,88,-99.99,,,-99.99,,2013-05-02 18:11:00,
2013-05-02 13:21:00,45.0,42.0,30.25,NNW,333,6.0,-999.0,89,-99.99,,,-99.99,,2013-05-02 18:21:00,
2013-05-02 13:31:00,45.0,42.0,30.25,NNW,333,6.0,-999.0,89,-99.99,,,-99.99,,2013-05-02 18:31:00,
2013-05-02 13:42:00,45.0,42.0,30.25,NNW,333,6.0,-999.0,89,-99.99,,,-99.99,,2013-05-02 18:42:00,
2013-05-02 13:52:00,45.0,42.0,30.25,NNW,345,6.0,-999.0,89,-99.99,,,-99.99,,2013-05-02 18:52:00,
2013-05-02 14:01:00,45.0,42.0,30.25,NNW,345,6.0,-999.0,89,-99.99,,,-99.99,,2013-05-02 19:01:00,
2013-05-02 14:11:00,45.0,42.0,30.25,NNW,345,6.0,-999.0,89,-99.99,,,-99.99,,2013-05-02 19:11:00,
2013-05-02 14:21:00,46.0,43.0,30.25,NNW,334,5.0,-999.0,88,-99.99,,,-99.99,,2013-05-02 19:21:00,
2013-05-02 14:32:00,46.0,43.0,30.25,NNW,334,5.0,-999.0,88,-99.99,,,-99.99,,2013-05-02 19:32:00,
2013-05-02 14:42:00,46.0,43.0,30.25,NNW,334,5.0,-999.0,88,-99.99,,,-99.99,,2013-05-02 19:42:00,
2013-05-02 14:52:00,46.0,43.0,30.25,North,355,4.0,-999.0,89,-99.99,,,-99.99,,2013-05-02 19:52:00,
2013-05-02 15:02:00,46.0,43.0,30.25,North,355,4.0,-999.0,89,-99.99,,,-99.99,,2013-05-02 20:02:00,
2013-05-02 15:11:00,46.0,43.0,30.25,North,355,4.0,-999.0,89,-99.99,,,-99.99,,2013-05-02 20:11:00,
2013-05-02 15:22:00,44.0,42.0,30.22,NNW,342,5.0,-999.0,92,-99.99,,,-99.99,,2013-05-02 20:22:00,
2013-05-02 15:32:00,44.0,42.0,30.22,NNW,342,5.0,-999.0,92,-99.99,,,-99.99,,2013-05-02 20:32:00,
2013-05-02 15:42:00,44.0,42.0,30.22,NNW,342,5.0,-999.0,92,-99.99,,,-99.99,,2013-05-02 20:42:00,
2013-05-02 15:52:00,44.0,42.0,30.23,NW,317,4.0,-999.0,92,-99.99,,,-99.99,,2013-05-02 20:52:00,
2013-05-02 16:01:00,44.0,42.0,30.23,NW,317,4.0,-999.0,92,-99.99,,,-99.99,,2013-05-02 21:01:00,
2013-05-02 16:11:00,44.0,42.0,30.23,NW,317,4.0,-999.0,92,-99.99,,,-99.99,,2013-05-02 21:11:00,
2013-05-02 16:21:00,44.0,42.0,30.23,NNW,336,6.0,-999.0,92,-99.99,,,-99.99,,2013-05-02 21:21:00,
2013-05-02 16:33:00,44.0,42.0,30.23,NNW,336,6.0,-999.0,92,-99.99,,,-99.99,,2013-05-02 21:33:00,
2013-05-02 16:42:00,44.0,42.0,30.23,NNW,336,6.0,-999.0,92,-99.99,,,-99.99,,2013-05-02 21:42:00,
2013-05-02 16:53:00,43.0,41.0,30.24,NW,308,5.0,-999.0,92,-99.99,,,-99.99,,2013-05-02 21:53:00,
2013-05-02 17:02:00,43.0,41.0,30.24,NW,308,5.0,-999.0,92,-99.99,,,-99.99,,2013-05-02 22:02:00,
2013-05-02 17:12:00,43.0,41.0,30.24,NW,308,5.0,-999.0,92,-99.99,,,-99.99,,2013-05-02 22:12:00,
2013-05-02 17:22:00,42.0,40.0,30.24,NW,325,6.0,-999.0,92,-99.99,,,-99.99,,2013-05-02 22:22:00,
2013-05-02 17:32:00,42.0,40.0,30.24,NW,325,6.0,-999.0,92,-99.99,,,-99.99,,2013-05-02 22:32:00,
2013-05-02 17:42:00,42.0,40.0,30.24,NW,325,6.0,-999.0,92,-99.99,,,-99.99,,2013-05-02 22:42:00,
2013-05-02 17:52:00,42.0,40.0,30.24,North,349,5.0,-999.0,92,-99.99,,,-99.99,,2013-05-02 22:52:00,
2013-05-02 18:02:00,42.0,40.0,30.24,North,349,5.0,-999.0,92,-99.99,,,-99.99,,2013-05-02 23:02:00,
2013-05-02 18:11:00,42.0,40.0,30.24,North,349,5.0,-999.0,92,-99.99,,,-99.99,,2013-05-02 23:11:00,
2013-05-02 18:22:00,42.0,40.0,30.24,North,350,6.0,-999.0,92,-99.99,,,-99.99,,2013-05-02 23:22:00,
2013-05-02 18:32:00,42.0,40.0,30.24,North,350,6.0,-999.0,92,-99.99,,,-99.99,,2013-05-02 23:32:00,
2013-05-02 18:42:00,42.0,40.0,30.24,North,350,6.0,-999.0,92,-99.99,,,-99.99,,2013-05-02 23:42:00,
2013-05-02 18:52:00,41.0,39.0,30.24,NNW,334,6.0,-999.0,91,-99.99,,,-99.99,,2013-05-02 23:52:00,
2013-05-02 19:01:00,41.0,39.0,30.24,NNW,334,6.0,-999.0,91,-99.99,,,-99.99,,2013-05-03 00:01:00,
2013-05-02 19:11:00,41.0,39.0,30.24,NNW,334,6.0,-999.0,91,-99.99,,,-99.99,,2013-05-03 00:11:00,
2013-05-02 19:21:00,41.0,38.0,30.24,NW,321,6.0,-999.0,90,-99.99,,,-99.99,,2013-05-03 00:21:00,
2013-05-02 19:31:00,41.0,38.0,30.24,NW,321,6.0,-999.0,90,-99.99,,,-99.99,,2013-05-03 00:31:00,
2013-05-02 19:42:00,41.0,38.0,30.24,NW,321,6.0,-999.0,90,-99.99,,,-99.99,,2013-05-03 00:42:00,
2013-05-02 19:52:00,40.0,38.0,30.25,North,360,5.0,-999.0,92,-99.99,,,-99.99,,2013-05-03 00:52:00,
2013-05-02 20:01:00,40.0,38.0,30.25,North,360,5.0,-999.0,92,-99.99,,,-99.99,,2013-05-03 01:01:00,
2013-05-02 20:11:00,40.0,38.0,30.25,North,360,5.0,-999.0,92,-99.99,,,-99.99,,2013-05-03 01:11:00,
2013-05-02 20:21:00,39.0,37.0,30.25,NW,317,5.0,-999.0,94,-99.99,,,-99.99,,2013-05-03 01:21:00,
2013-05-02 20:31:00,39.0,37.0,30.25,NW,317,5.0,-999.0,94,-99.99,,,-99.99,,2013-05-03 01:31:00,
2013-05-02 20:42:00,39.0,37.0,30.25,NW,317,5.0,-999.0,94,-99.99,,,-99.99,,2013-05-03 01:42:00,
2013-05-02 20:52:00,39.0,37.0,30.25,NNW,330,6.0,-999.0,92,-99.99,,,-99.99,,2013-05-03 01:52:00,
2013-05-02 21:01:00,39.0,37.0,30.25,NNW,330,6.0,-999.0,92,-99.99,,,-99.99,,2013-05-03 02:01:00,
2013-05-02 21:11:00,39.0,37.0,30.25,NNW,330,6.0,-999.0,92,-99.99,,,-99.99,,2013-05-03 02:11:00,
2013-05-02 21:21:00,39.0,37.0,30.25,NW,321,5.0,-999.0,93,-99.99,,,-99.99,,2013-05-03 02:21:00,
2013-05-02 21:32:00,39.0,37.0,30.25,NW,321,5.0,-999.0,93,-99.99,,,-99.99,,2013-05-03 02:32:00,
2013-05-02 21:42:00,39.0,37.0,30.25,NW,321,5.0,-999.0,93,-99.99,,,-99.99,,2013-05-03 02:42:00,
2013-05-02 21:52:00,39.0,37.0,30.22,NNW,343,4.0,-999.0,93,-99.99,,,-99.99,,2013-05-03 02:52:00,
2013-05-02 22:00:00,37.0,35.0,30.22,WNW,302,5.0,-999.0,94,-99.99,,,-99.99,,2013-05-03 03:00:00,
2013-05-02 22:01:00,39.0,37.0,30.22,NNW,343,4.0,-999.0,93,-99.99,,,-99.99,,2013-05-03 03:01:00,
2013-05-02 22:11:00,39.0,37.0,30.22,NNW,343,4.0,-999.0,93,-99.99,,,-99.99,,2013-05-03 03:11:00,
2013-05-02 22:21:00,37.0,35.0,30.22,WNW,302,5.0,-999.0,94,-99.99,,,-99.99,,2013-05-03 03:21:00,
2013-05-02 22:33:00,37.0,35.0,30.22,WNW,302,5.0,-999.0,94,-99.99,,,-99.99,,2013-05-03 03:33:00,
2013-05-02 22:43:00,37.0,35.0,30.22,WNW,302,5.0,-999.0,94,-99.99,,,-99.99,,2013-05-03 03:43:00,
2013-05-02 22:53:00,37.0,35.0,30.22,WNW,302,5.0,-999.0,94,-99.99,,,-99.99,,2013-05-03 03:53:00,